Weather Roundup
Issued by NWS

Home | Current Version | Previous Version | Text Only | Print | Product List | Glossary On
Versions: 1 2 3 4 5 6 7 8 9 10 11 12 13 14 15 16 17 18 19 20 21 22 23 24 25 26 27 28 29 30 31 32 33 34 35 36 37 38 39 40 41 42 43 44 45 46 47 48 49 50
000
NZUS93 KARX 181810
HRRWXR

CURRENT HOURLY OBSERVATIONS ACROSS
MUCH OF THE UPPER MISSISSIPPI VALLEY
NATIONAL WEATHER SERVICE LA CROSSE WI
1200 PM CST THU DEC 18 2014


...SOUTHEAST MINNESOTA...


CITY           SKY/WX    TMP DP  RH WIND       PRES   REMARKS
ROCHESTER      CLOUDY    19  14  81 S5        30.26F WCI  12
ROCHESTER/MAYO CLOUDY    21  14  74 SE3       30.26F
WINONA         CLOUDY    25  19  80 CALM      30.30F
AUSTIN         LGT SNOW  18  16  93 CALM      30.25F
ALBERT LEA     MOSUNNY   21  16  79 CALM      30.25F
DODGE CENTER   CLOUDY    19  16  86 S5        30.25F WCI  13
PRESTON        CLOUDY    20  15  83 CALM      30.26F
OWATONNA       CLOUDY    18  12  79 CALM      30.26F
FARIBAULT      LGT SNOW  19  14  79 SE6       30.28F WCI  11
$$

...ELSEWHERE IN MINNESOTA...


CITY           SKY/WX    TMP DP  RH WIND       PRES   REMARKS
MINNEAPOLIS    LGT SNOW  19  16  88 CALM      30.30F FOG
INTNL FALLS    LGT SNOW  18  13  80 SW7       30.27F WCI   9
DULUTH         CLOUDY    25  19  78 SE8       30.23F WCI  16
RED WING       LGT SNOW  23  18  80 CALM      30.29F
REDWOOD FALLS  PTSUNNY   18  14  84 SE8       30.26F WCI   8
MANKATO        CLOUDY    19  10  68 CALM      30.28F
WORTHINGTON    CLOUDY    21  18  86 S7        30.21F WCI  13
FAIRMONT       CLOUDY    19  14  79 SE5       30.25F WCI  13
$$

...SOUTHWEST WISCONSIN...


CITY           SKY/WX    TMP DP  RH WIND       PRES   REMARKS
LA CROSSE      CLOUDY    25  18  74 S3        30.30F
PRAIRIE DU CHI MOSUNNY   26  18  70 CALM      30.28F
BOSCOBEL       CLOUDY    27  17  66 CALM      30.29F
LONE ROCK      NOT AVBL
PLATTEVILLE    MOSUNNY   23  18  81 CALM      30.26F
FORT MC COY    CLOUDY    24  19  81 CALM      30.29F
CAMP DOUGLAS   CLOUDY    23  23 100 CALM      30.27F
VIROQUA        CLOUDY    22  19  89 E5        30.24F WCI  16
WIS DELLS      CLOUDY    24  20  82 CALM      30.25F
$$

...ELSEWHERE IN WISCONSIN...


CITY           SKY/WX    TMP DP  RH WIND       PRES   REMARKS
MILWAUKEE      CLOUDY    27  21  78 W8        30.25F WCI  19
MADISON        FLURRIES  26  20  77 NW5       30.25F WCI  20
GREEN BAY      CLOUDY    28  21  75 N7        30.26F WCI  21
EAU CLAIRE     CLOUDY    23  18  81 S3        30.28F
BLACK RVR FLS  CLOUDY    24  20  83 CALM      30.28F
MEDFORD        CLOUDY    22  18  83 CALM      30.24S
WAUSAU         CLOUDY    24  19  81 E3        30.24F
WIS RAPIDS     CLOUDY    25  19  78 CALM      30.27F
MARSHFIELD     CLOUDY    25  19  78 S5        30.24F WCI  19
RICE LAKE      CLOUDY    23  19  86 SE5       30.29F WCI  17
$$

...NORTHEAST IOWA...


CITY           SKY/WX    TMP DP  RH WIND       PRES   REMARKS
DECORAH        CLOUDY    21  18  86 CALM      30.25F
MASON CITY     PTSUNNY   22  17  81 CALM      30.26F
CHARLES CITY   CLOUDY    19  16  86 CALM      30.27F
OELWEIN        PTSUNNY   21  16  79 CALM      30.27F
$$

...ELSEWHERE IN IOWA...


CITY           SKY/WX    TMP DP  RH WIND       PRES   REMARKS
DES MOINES     FLURRIES  29  18  63 S3        30.27F
IOWA CITY      CLOUDY    25  20  81 CALM      30.30F
FORT DODGE     PTSUNNY   23  18  80 S3        30.26F
$$

...NORTHERN ILLINOIS...


CITY           SKY/WX    TMP DP  RH WIND       PRES   REMARKS
CHICAGO-OHARE  CLOUDY    26  17  68 W6        30.25F WCI  19
CHICAGO-MIDWAY PTSUNNY   27  18  69 W6        30.26F WCI  20
MOLINE         CLOUDY    27  18  69 CALM      30.28F
ROCKFORD       CLOUDY    25  16  68 VRB6      30.29F WCI  18
PEORIA         CLOUDY    28  19  69 CALM      30.28F
$$

NOTE: "FAIR" INDICATES FEW OR NO CLOUDS BELOW 12,000 FEET WITH NO
SIGNIFICANT WEATHER AND/OR OBSTRUCTIONS TO VISIBILITY. WIND
SPEEDS ARE IN MILES-PER-HOUR.



USA.gov is the U.S. government's official web portal to all federal, state and local government web resources and services.